Regional Weather Roundup
Issued by NWS

Home | Current Version | Previous Version | Text Only | Print | Product List | Glossary Off
Versions: 1 2 3 4 5 6 7 8 9 10 11 12 13 14 15 16 17 18 19 20 21 22 23 24 25 26 27 28 29 30 31 32 33 34 35 36 37 38 39 40 41 42 43 44 45 46 47 48 49 50

000
ASUS43 KMKX 282313
RWRWI

WISCONSIN REGIONAL WEATHER ROUNDUP
NATIONAL WEATHER SERVICE MILWAUKEE/SULLIVAN WI
600 PM CDT THU MAY 28 2015

NOTE: "FAIR" INDICATES FEW OR NO CLOUDS BELOW 12,000 FEET WITH NO
SIGNIFICANT WEATHER AND/OR OBSTRUCTIONS TO VISIBILITY.

WIZ001-002-006>008-014>016-023>028-290000-
NORTHWEST WISCONSIN

CITY           SKY/WX    TMP DP  RH WIND       PRES   REMARKS
SUPERIOR ARPT  CLOUDY    43  41  93 NE9       30.01F
ASHLAND        SUNNY     57  49  74 N10       29.98F
HAYWARD        SUNNY     81  52  36 S16G25    29.97F HX  80
SIREN          SUNNY     82  50  33 S14G25    29.96F HX  80
CUMBERLAND     SUNNY     77  52  41 S16G24    29.99F
RICE LAKE      MOSUNNY   81  51  35 S16G25    30.01F HX  80
CHETEK         MOSUNNY   80  55  42 S12G23    30.00F HX  80
LADYSMITH      SUNNY     79  54  41 S14G22    30.04F HX  80
EAU CLAIRE     MOSUNNY   80  52  37 S15G22    30.00F HX  80
MENOMONIE      MOSUNNY   80  53  39 S16       30.00F HX  80
NEW RICHMOND   MOSUNNY   78  51  38 S18       29.98F
OSCEOLA        MOSUNNY   82  51  33 S13G25    29.99F HX  81
$$

WIZ003>005-009-010-017-018-290000-
NORTH CENTRAL WISCONSIN

CITY           SKY/WX    TMP DP  RH WIND       PRES   REMARKS
MANITOWISH WTR MOSUNNY   80  53  39 SW16      30.02F HX  80
ARBOR VITAE    MOSUNNY   80  52  38 S16       30.04F HX  80
WOODRUFF       MOSUNNY   80  52  38 S16       30.04F HX  80
RHINELANDER    MOSUNNY   79  55  43 VRB7      30.05F
EAGLE RIVER    PTSUNNY   79  44  28 SW10      30.05F
LAND O LAKES   LGT RAIN  78  51  38 S12G20    30.06S
PHILLIPS       MOSUNNY   80  53  39 S13       30.02F HX  80
TOMAHAWK       SUNNY     78  56  45 CALM      30.05F
MEDFORD        MOSUNNY   77  57  49 S14G22    30.05F
MERRILL        SUNNY    N/A N/A N/A SW7G16    30.06F
$$

WIZ029-030-035-036-043>047-290000-
CENTRAL WISCONSIN

CITY           SKY/WX    TMP DP  RH WIND       PRES   REMARKS
WAUSAU         PTSUNNY   80  54  40 S15G25    30.04F HX  80
MOSINEE        PTSUNNY   79  57  47 S15G24    30.07F HX  80
MARSHFIELD     MOSUNNY   79  55  43 S9        30.05F
STEVENS POINT  PTSUNNY   77  55  45 S15       30.07F
WAUPACA        MOSUNNY   82  56  40 S12G17    30.08F HX  81
WAUTOMA        NOT AVBL
WISC RAPIDS    MOSUNNY   81  50  33 SW14      30.06F HX  80
CAMP DOUGLAS   NOT AVBL
$$

WIZ011>013-019>022-031-037>040-048>050-290000-
NORTHEAST WISCONSIN

CITY           SKY/WX    TMP DP  RH WIND       PRES   REMARKS
ANTIGO         PTSUNNY   74  63  67 S10       30.08F
SHAWANO        MOSUNNY   83  55  37 S9G17     30.07F HX  82
OCONTO         MOSUNNY   78  62  57 S10       30.08F HX  80
STURGEON BAY   MOSUNNY   73  57  56 S15G21    30.12F
GREEN BAY      MOSUNNY   79  62  56 S15G23    30.08F HX  80
MANITOWOC      NOT AVBL
APPLETON       MOSUNNY   81  55  41 S14       30.09F HX  80
CLINTONVILLE   MOSUNNY   81  54  39 S13G20    30.07F HX  80
OSHKOSH        MOSUNNY   80  56  43 S16G22    30.08F HX  80
$$

WIZ032>034-041-042-053>061-290000-
SOUTHWEST WISCONSIN

CITY           SKY/WX    TMP DP  RH WIND       PRES   REMARKS
LA CROSSE      MOSUNNY   82  54  37 S16       30.01F HX  81
SPARTA         SUNNY     82  49  32 S14       30.06F HX  80
VIROQUA        MOSUNNY   79  51  38 S14       30.07F
BOSCOBEL       MOSUNNY   82  53  36 S9        30.05F HX  81
PRAIRIE DU CHI MOSUNNY   81  48  32 SE8       30.04F HX  80
PLATTEVILLE    MOSUNNY   80  51  37 SE14      30.08F HX  80
$$

WIZ056-057-062-063-064-067-068-290000-
SOUTH CENTRAL WISCONSIN

CITY           SKY/WX    TMP DP  RH WIND       PRES   REMARKS
REEDSBURG      MOSUNNY   79  58  48 S12G18    30.08F HX  80
BARABOO/DELLS  MOSUNNY   78  54  42 S10G16    30.09F
LONE ROCK      NOT AVBL
MINERAL POINT  MOSUNNY   79  50  36 S12       30.09F
MADISON        PTSUNNY   81  52  36 S10       30.08F HX  80
MIDDLETON      PTSUNNY   81  47  30 S13       30.09F HX  80
WATERTOWN      MOSUNNY  N/A N/A N/A S7        30.10F
MONROE         MOSUNNY   79  52  38 S15       30.10F
JANESVILLE     MOSUNNY   82  52  34 SE12      30.09F HX  81
$$

WIZ051-052-058>065-066-070>072-290000-
SOUTHEAST WISCONSIN

CITY           SKY/WX    TMP DP  RH WIND       PRES   REMARKS
MILWAUKEE      PTSUNNY   74  55  51 SE12      30.12F
WAUKESHA       SUNNY     75  52  43 SE14      30.14F
MILWAUKEE/TIMM SUNNY     79  45  29 S9        30.13F
RACINE         MOSUNNY   74  55  51 S7        30.15F
BURLINGTON     MOSUNNY   77  51  41 E8        30.12F
KENOSHA        MOSUNNY   76  57  51 E12       30.13F
FOND DU LAC    SUNNY     81  56  42 S14       30.09F HX  81
SHEBOYGAN      MOSUNNY   74  57  55 S10       30.12F
WEST BEND      SUNNY     79  54  41 SE7       30.12F
JUNEAU         MOSUNNY   78  56  47 S8        30.12F
$$

LSZ147-162-290000-
LAKE SUPERIOR

STATION/POSITION TIME  TEMP    WIND        PRES    WAVE
                       AIR SEA DIR/SP/G            HT/PER
                 (UTC) (F)     (DEG/KT/KT) (MB)    (FT/S)
W MID LAKE BUOY  2150   38 37   40/ 16/ 19   N/A     3/ 5
DEVILS ISLAND    2200   40      60/ 13/ 14   N/A
PORT WING        2200   41      20/ 16/ 18   N/A
SAXON HARBOR     2200   46        CALM       N/A
$$

LMZ867-665-643>646-290000-
LAKE MICHIGAN

STATION/POSITION TIME  TEMP    WIND        PRES    WAVE
                       AIR SEA DIR/SP/G            HT/PER
                 (UTC) (F)     (DEG/KT/KT) (MB)    (FT/S)
N MID LAKE BUOY  2150   40 37  140/  6/  6   N/A     1
NORTHPORT PIER   2200   51     150/ 10/ 15   N/A
SISTER BAY       2248   70     180/ 16/ 21   N/A
ALGOMA LAKESHORE 2223          220/ 12/ 14   N/A
KEWAUNEE LAKESHO 2200   51     170/ 10/ 12   N/A
SHEBOYGAN LAKESH 2200   61     180/ 24/ 25   N/A
PORT WASHINGTON  2200   61     190/  6/  9   N/A
ATWATER BUOY     2200   56     160/  8/ 10   N/A
MILWAUKEE LAKESH 2200   55     140/ 12/ 12   N/A
S MID LAKE BUOY  2150   58 39  100/  2/  4   N/A     0
KENOSHA   LAKESH 2200   63     170/  3/  4   N/A
$$

TC  - TEMPERATURE IN CELSIUS
VSB - VISIBILITY IN STATUTE MILES
WCI - WIND CHILL INDEX
HX  - HEAT INDEX



USA.gov is the U.S. government's official web portal to all federal, state and local government web resources and services.